Location: Barcelona
(41.3829°N, 2.1774°E)
Time: 08:06:56
(UTC+00:00)

ISS - Pass Details

Date: 13 May 2025
Orbit: 416 x 420 km, 51.6° (Epoch: 12 May)

Event Time Altitude Azimuth Distance (km) Brightness Sun altitude
Rises 20:09:47 0° 262° (W) 2,354 0.8 -11.7°
Reaches altitude 10° 20:12:03 10° 274° (W) 1,492 -0.1 -12.0°
Maximum altitude 20:15:01 28° 336° (NNW) 808 -1.6 -12.4°
Drops below altitude 10° 20:17:59 10° 38° (NE) 1,496 -0.9 -12.9°
Sets 20:20:16 0° 51° (NE) 2,361 -0.1 -13.2°
